Time,TemperatureF,DewpointF,PressureIn,WindDirection,WindDirectionDegrees,WindSpeedMPH,WindSpeedGustMPH,Humidity,HourlyPrecipIn,Conditions,Clouds,dailyrainin,SoftwareType,DateUTC
2013-05-05 00:06:00,56.7,51.0,30.01,SE,125,0.0,3.0,81,0.00,,,0.00,weatherlink.com 1.10,2013-05-05 04:06:00,
2013-05-05 00:21:00,56.5,51.0,30.01,ENE,74,1.0,2.0,81,0.00,,,0.00,weatherlink.com 1.10,2013-05-05 04:21:00,
2013-05-05 00:36:00,56.3,51.0,30.00,West,275,0.0,5.0,81,0.00,,,0.00,weatherlink.com 1.10,2013-05-05 04:36:00,
2013-05-05 00:51:00,56.3,50.0,30.00,East,89,0.0,3.0,80,0.00,,,0.00,weatherlink.com 1.10,2013-05-05 04:51:00,
2013-05-05 01:06:00,56.3,50.0,30.00,West,275,0.0,2.0,80,0.00,,,0.00,weatherlink.com 1.10,2013-05-05 05:06:00,
2013-05-05 01:21:00,56.3,50.0,30.00,ENE,57,0.0,3.0,79,0.00,,,0.00,weatherlink.com 1.10,2013-05-05 05:21:00,
2013-05-05 01:36:00,56.2,50.0,30.00,NE,44,1.0,5.0,79,0.00,,,0.00,weatherlink.com 1.10,2013-05-05 05:36:00,
2013-05-05 01:51:00,56.0,50.0,29.98,East,79,0.0,3.0,79,0.00,,,0.00,weatherlink.com 1.10,2013-05-05 05:51:00,
2013-05-05 02:06:00,55.9,50.0,29.98,ENE,69,0.0,2.0,79,0.00,,,0.00,weatherlink.com 1.10,2013-05-05 06:06:00,
2013-05-05 02:21:00,55.6,49.0,29.97,ESE,105,0.0,4.0,79,0.00,,,0.00,weatherlink.com 1.10,2013-05-05 06:21:00,
2013-05-05 02:36:00,55.3,49.0,29.96,NE,42,0.0,4.0,80,0.00,,,0.00,weatherlink.com 1.10,2013-05-05 06:36:00,
2013-05-05 02:51:00,54.4,49.0,29.95,East,92,0.0,4.0,83,0.00,,,0.00,weatherlink.com 1.10,2013-05-05 06:51:00,
2013-05-05 03:06:00,53.8,50.0,29.95,SW,215,0.0,4.0,86,0.00,,,0.00,weatherlink.com 1.10,2013-05-05 07:06:00,
2013-05-05 03:21:00,53.3,50.0,29.95,East,85,0.0,6.0,88,0.00,,,0.00,weatherlink.com 1.10,2013-05-05 07:21:00,
2013-05-05 03:36:00,52.8,50.0,29.95,ENE,62,0.0,2.0,90,0.00,,,0.00,weatherlink.com 1.10,2013-05-05 07:36:00,
2013-05-05 03:51:00,52.6,50.0,29.95,East,90,2.0,2.0,91,0.00,,,0.00,weatherlink.com 1.10,2013-05-05 07:51:00,
2013-05-05 04:06:00,52.3,50.0,29.94,NNE,30,0.0,2.0,91,0.00,,,0.00,weatherlink.com 1.10,2013-05-05 08:06:00,
2013-05-05 04:22:00,52.2,50.0,29.94,NE,41,0.0,2.0,91,0.00,,,0.00,weatherlink.com 1.10,2013-05-05 08:22:00,
2013-05-05 04:37:00,52.0,50.0,29.93,South,169,0.0,3.0,91,0.00,,,0.00,weatherlink.com 1.10,2013-05-05 08:37:00,
2013-05-05 04:52:00,51.9,49.0,29.93,East,80,0.0,3.0,90,0.00,,,0.00,weatherlink.com 1.10,2013-05-05 08:52:00,
2013-05-05 05:07:00,51.7,49.0,29.92,NE,55,0.0,3.0,90,0.00,,,0.00,weatherlink.com 1.10,2013-05-05 09:07:00,
2013-05-05 05:22:00,51.7,49.0,29.92,NNE,27,1.0,4.0,90,0.00,,,0.00,weatherlink.com 1.10,2013-05-05 09:22:00,
2013-05-05 05:37:00,51.6,49.0,29.92,East,85,0.0,3.0,90,0.00,,,0.00,weatherlink.com 1.10,2013-05-05 09:37:00,
2013-05-05 05:52:00,51.3,49.0,29.92,ENE,65,0.0,2.0,91,0.00,,,0.00,weatherlink.com 1.10,2013-05-05 09:52:00,
2013-05-05 06:07:00,51.1,48.0,29.91,East,80,2.0,5.0,90,0.00,,,0.00,weatherlink.com 1.10,2013-05-05 10:07:00,
2013-05-05 06:22:00,51.1,48.0,29.93,East,93,2.0,3.0,90,0.00,,,0.00,weatherlink.com 1.10,2013-05-05 10:22:00,
2013-05-05 06:37:00,51.3,48.0,29.92,East,99,0.0,4.0,89,0.00,,,0.00,weatherlink.com 1.10,2013-05-05 10:37:00,
2013-05-05 06:52:00,51.4,48.0,29.92,NE,34,0.0,2.0,88,0.00,,,0.00,weatherlink.com 1.10,2013-05-05 10:52:00,
2013-05-05 07:07:00,51.6,48.0,29.92,ENE,60,2.0,3.0,87,0.00,,,0.00,weatherlink.com 1.10,2013-05-05 11:07:00,
2013-05-05 07:22:00,51.9,48.0,29.93,East,86,1.0,3.0,86,0.00,,,0.00,weatherlink.com 1.10,2013-05-05 11:22:00,
2013-05-05 07:37:00,52.0,48.0,29.93,ENE,71,0.0,5.0,85,0.00,,,0.00,weatherlink.com 1.10,2013-05-05 11:37:00,
2013-05-05 07:52:00,52.2,48.0,29.93,East,86,3.0,4.0,84,0.00,,,0.00,weatherlink.com 1.10,2013-05-05 11:52:00,
2013-05-05 08:07:00,52.3,48.0,29.93,East,94,0.0,3.0,84,0.00,,,0.00,weatherlink.com 1.10,2013-05-05 12:07:00,
2013-05-05 08:22:00,52.5,48.0,29.94,ENE,65,2.0,8.0,84,0.00,,,0.00,weatherlink.com 1.10,2013-05-05 12:22:00,
2013-05-05 08:37:00,52.6,48.0,29.94,East,94,1.0,6.0,83,0.00,,,0.00,weatherlink.com 1.10,2013-05-05 12:37:00,
2013-05-05 08:52:00,52.6,48.0,29.94,East,94,1.0,9.0,83,0.00,,,0.00,weatherlink.com 1.10,2013-05-05 12:52:00,
2013-05-05 09:07:00,52.8,48.0,29.93,East,101,5.0,6.0,84,0.00,,,0.00,weatherlink.com 1.10,2013-05-05 13:07:00,
2013-05-05 09:22:00,52.8,48.0,29.93,NE,52,2.0,7.0,83,0.00,,,0.00,weatherlink.com 1.10,2013-05-05 13:22:00,
2013-05-05 09:37:00,52.6,48.0,29.93,East,90,1.0,6.0,84,0.00,,,0.00,weatherlink.com 1.10,2013-05-05 13:37:00,
2013-05-05 09:52:00,52.5,48.0,29.93,ENE,64,0.0,7.0,84,0.00,,,0.00,weatherlink.com 1.10,2013-05-05 13:52:00,
2013-05-05 10:07:00,52.3,49.0,29.94,East,84,1.0,4.0,88,0.00,,,0.00,weatherlink.com 1.10,2013-05-05 14:07:00,
2013-05-05 10:22:00,52.0,49.0,29.94,ENE,74,0.0,3.0,89,0.00,,,0.00,weatherlink.com 1.10,2013-05-05 14:22:00,
2013-05-05 10:37:00,52.2,49.0,29.94,ENE,63,0.0,4.0,89,0.00,,,0.00,weatherlink.com 1.10,2013-05-05 14:37:00,
2013-05-05 10:52:00,52.0,50.0,29.93,NE,56,0.0,3.0,91,0.00,,,0.00,weatherlink.com 1.10,2013-05-05 14:52:00,
2013-05-05 11:07:00,52.0,50.0,29.94,East,90,0.0,5.0,92,0.00,,,0.00,weatherlink.com 1.10,2013-05-05 15:07:00,
2013-05-05 11:22:00,51.9,50.0,29.94,NNE,30,0.0,3.0,93,0.01,,,0.01,weatherlink.com 1.10,2013-05-05 15:22:00,
2013-05-05 11:37:00,52.0,50.0,29.93,ENE,59,0.0,2.0,94,0.01,,,0.01,weatherlink.com 1.10,2013-05-05 15:37:00,
2013-05-05 11:52:00,52.0,51.0,29.94,NE,53,0.0,1.0,95,0.01,,,0.01,weatherlink.com 1.10,2013-05-05 15:52:00,
2013-05-05 12:07:00,52.0,51.0,29.94,ESE,103,0.0,3.0,95,0.01,,,0.01,weatherlink.com 1.10,2013-05-05 16:07:00,
2013-05-05 12:22:00,52.2,51.0,29.93,NE,36,0.0,3.0,95,0.00,,,0.01,weatherlink.com 1.10,2013-05-05 16:22:00,
2013-05-05 12:37:00,52.2,51.0,29.93,East,88,0.0,2.0,95,0.00,,,0.01,weatherlink.com 1.10,2013-05-05 16:37:00,
2013-05-05 12:52:00,52.3,51.0,29.93,ENE,63,0.0,5.0,95,0.00,,,0.01,weatherlink.com 1.10,2013-05-05 16:52:00,
2013-05-05 13:07:00,52.5,51.0,29.93,East,94,0.0,4.0,95,0.01,,,0.02,weatherlink.com 1.10,2013-05-05 17:07:00,
2013-05-05 13:22:00,52.6,51.0,29.94,SSW,200,1.0,3.0,95,0.02,,,0.03,weatherlink.com 1.10,2013-05-05 17:22:00,
2013-05-05 13:37:00,52.6,52.0,29.94,East,82,0.0,2.0,96,0.03,,,0.04,weatherlink.com 1.10,2013-05-05 17:37:00,
2013-05-05 13:52:00,52.8,52.0,29.93,ENE,62,0.0,2.0,96,0.05,,,0.06,weatherlink.com 1.10,2013-05-05 17:52:00,
2013-05-05 14:07:00,52.8,52.0,29.92,ENE,70,0.0,3.0,96,0.04,,,0.06,weatherlink.com 1.10,2013-05-05 18:07:00,
2013-05-05 14:22:00,52.6,52.0,29.91,ESE,104,0.0,2.0,96,0.04,,,0.07,weatherlink.com 1.10,2013-05-05 18:22:00,
2013-05-05 14:37:00,52.6,52.0,29.92,ENE,78,0.0,3.0,97,0.03,,,0.07,weatherlink.com 1.10,2013-05-05 18:37:00,
2013-05-05 14:52:00,53.2,52.0,29.92,ESE,110,0.0,4.0,97,0.02,,,0.08,weatherlink.com 1.10,2013-05-05 18:52:00,
2013-05-05 15:07:00,53.5,53.0,29.91,ENE,61,0.0,4.0,97,0.02,,,0.08,weatherlink.com 1.10,2013-05-05 19:07:00,
2013-05-05 15:22:00,53.6,53.0,29.89,ENE,71,1.0,3.0,97,0.01,,,0.08,weatherlink.com 1.10,2013-05-05 19:22:00,
2013-05-05 15:37:00,53.8,53.0,29.89,East,90,0.0,4.0,97,0.04,,,0.11,weatherlink.com 1.10,2013-05-05 19:37:00,
2013-05-05 15:52:00,54.4,54.0,29.89,ENE,66,1.0,2.0,98,0.04,,,0.12,weatherlink.com 1.10,2013-05-05 19:52:00,
2013-05-05 16:07:00,54.5,54.0,29.88,ENE,60,2.0,3.0,98,0.04,,,0.12,weatherlink.com 1.10,2013-05-05 20:07:00,
2013-05-05 16:22:00,54.7,54.0,29.87,ENE,61,0.0,3.0,98,0.04,,,0.12,weatherlink.com 1.10,2013-05-05 20:22:00,
2013-05-05 16:37:00,54.8,54.0,29.86,East,93,0.0,5.0,98,0.04,,,0.15,weatherlink.com 1.10,2013-05-05 20:37:00,
2013-05-05 16:52:00,55.1,55.0,29.86,South,180,0.0,3.0,98,0.05,,,0.17,weatherlink.com 1.10,2013-05-05 20:52:00,
2013-05-05 17:07:00,55.3,55.0,29.86,ENE,63,0.0,2.0,98,0.05,,,0.17,weatherlink.com 1.10,2013-05-05 21:07:00,
2013-05-05 17:22:00,55.4,55.0,29.86,East,101,2.0,4.0,98,0.07,,,0.19,weatherlink.com 1.10,2013-05-05 21:22:00,
2013-05-05 17:37:00,55.7,55.0,29.86,East,79,0.0,3.0,98,0.04,,,0.19,weatherlink.com 1.10,2013-05-05 21:37:00,
2013-05-05 17:52:00,55.9,55.0,29.86,East,94,0.0,3.0,98,0.03,,,0.20,weatherlink.com 1.10,2013-05-05 21:52:00,
2013-05-05 18:07:00,56.0,56.0,29.86,East,94,1.0,4.0,98,0.04,,,0.21,weatherlink.com 1.10,2013-05-05 22:07:00,
2013-05-05 18:22:00,56.3,56.0,29.86,ESE,103,2.0,3.0,98,0.02,,,0.21,weatherlink.com 1.10,2013-05-05 22:22:00,
2013-05-05 18:37:00,56.5,56.0,29.85,ESE,104,1.0,5.0,98,0.02,,,0.21,weatherlink.com 1.10,2013-05-05 22:37:00,
2013-05-05 18:52:00,56.6,56.0,29.85,ESE,119,0.0,7.0,98,0.01,,,0.21,weatherlink.com 1.10,2013-05-05 22:52:00,
2013-05-05 19:07:00,56.7,56.0,29.86,SSE,163,1.0,5.0,98,0.00,,,0.21,weatherlink.com 1.10,2013-05-05 23:07:00,
2013-05-05 19:22:00,57.0,57.0,29.84,SE,142,0.0,3.0,98,0.00,,,0.21,weatherlink.com 1.10,2013-05-05 23:22:00,
2013-05-05 19:37:00,57.2,57.0,29.85,ENE,69,1.0,4.0,98,0.00,,,0.21,weatherlink.com 1.10,2013-05-05 23:37:00,
2013-05-05 19:52:00,57.3,57.0,29.84,East,85,1.0,4.0,98,0.00,,,0.21,weatherlink.com 1.10,2013-05-05 23:52:00,
2013-05-05 20:07:00,57.5,57.0,29.84,ESE,113,1.0,3.0,99,0.00,,,0.21,weatherlink.com 1.10,2013-05-06 00:07:00,
2013-05-05 20:22:00,57.6,57.0,29.84,ENE,76,0.0,4.0,99,0.00,,,0.21,weatherlink.com 1.10,2013-05-06 00:22:00,
2013-05-05 20:52:00,57.8,57.0,29.84,ESE,116,2.0,4.0,98,0.00,,,0.21,weatherlink.com 1.10,2013-05-06 00:52:00,
2013-05-05 21:07:00,57.8,57.0,29.84,NNE,17,1.0,3.0,98,0.00,,,0.21,weatherlink.com 1.10,2013-05-06 01:07:00,
2013-05-05 21:22:00,58.0,58.0,29.85,ENE,75,1.0,3.0,98,0.01,,,0.22,weatherlink.com 1.10,2013-05-06 01:22:00,
2013-05-05 21:37:00,58.1,58.0,29.86,ESE,104,0.0,2.0,98,0.02,,,0.23,weatherlink.com 1.10,2013-05-06 01:37:00,
2013-05-05 21:52:00,58.3,58.0,29.85,ENE,74,0.0,4.0,99,0.02,,,0.23,weatherlink.com 1.10,2013-05-06 01:52:00,
2013-05-05 22:07:00,58.4,58.0,29.85,SE,124,1.0,7.0,99,0.02,,,0.23,weatherlink.com 1.10,2013-05-06 02:07:00,
2013-05-05 22:22:00,58.6,58.0,29.85,NE,46,2.0,4.0,98,0.01,,,0.23,weatherlink.com 1.10,2013-05-06 02:22:00,
2013-05-05 22:37:00,58.6,58.0,29.84,ESE,108,0.0,5.0,98,0.00,,,0.23,weatherlink.com 1.10,2013-05-06 02:37:00,
2013-05-05 22:53:00,58.6,58.0,29.84,ESE,122,0.0,9.0,98,0.00,,,0.23,weatherlink.com 1.10,2013-05-06 02:53:00,
2013-05-05 23:08:00,58.6,58.0,29.85,ENE,64,1.0,8.0,98,0.01,,,0.24,weatherlink.com 1.10,2013-05-06 03:08:00,
2013-05-05 23:23:00,58.7,58.0,29.84,East,79,1.0,4.0,98,0.01,,,0.24,weatherlink.com 1.10,2013-05-06 03:23:00,
2013-05-05 23:38:00,58.9,58.0,29.84,ESE,103,1.0,11.0,98,0.01,,,0.24,weatherlink.com 1.10,2013-05-06 03:38:00,
2013-05-05 23:53:00,59.0,59.0,29.84,ESE,120,0.0,9.0,98,0.01,,,0.24,weatherlink.com 1.10,2013-05-06 03:53:00,